Naples, Italy

7:31 AM CET on February 28, 2017 (GMT +0100)
Naples

Weather History for LIRN - November, 2011

Change the Weather History Date:

Tuesday, November 1, 2011

  Actual Average Record
Temperature  
Mean Temperature 64 °F -  
Max Temperature 71 °F 63 °F 84 °F (2004)
Min Temperature 56 °F 46 °F 35 °F (2004)
Degree Days  
Heating Degree Days 2    
Growing Degree Days 14 (Base 50)    
Moisture  
Dew Point 51 °F    
Average Humidity 65    
Maximum Humidity 77    
Minimum Humidity 34    
Precipitation  
Precipitation 0.00 in 0.21 in - ()
Sea Level Pressure  
Sea Level Pressure 30.07 in    
Wind  
Wind Speed 4 mph ()    
Max Wind Speed 7 mph    
Max Gust Speed -    
Visibility 8.1 miles    
Events      
Averages and records for this station are not official NWS values.
T = Trace of Precipitation, MM = Missing Value Source: Averaged Metar Reports

Daily Weather History Graph

Daily Weather History Graph

Search for Another Location

Airport or City:

Trip Planner

Search our weather history database for the weather conditions in past years. The results will help you decide how hot, cold, wet, or windy it might be!

Date:

Astronomy

Nov. 01, 2011 Rise Set
Actual Time 6:32 AM CET 4:59 PM CET
Civil Twilight 6:04 AM CET 5:27 PM CET
Nautical Twilight 5:31 AM CET 6:00 PM CET
Astronomical Twilight 4:59 AM CET 6:32 PM CET
Moon 12:09 PM CET (11/1) 10:22 PM CET (11/1)
Length of Visible Light 11h 23m
Length of Day
10h 26m
Waxing Crescent, 37% of the Moon is Illuminated
Nov 1
Waxing Crescent
Nov 2
First Quarter
Nov 10
Full
Nov 18
Last Quarter
Nov 25
New

Hourly Weather History & Observations

Time (CET) Temp. Dew Point Humidity Pressure Visibility Wind Dir Wind Speed Gust Speed Precip Events Conditions
12:20 AM 60.8 °F 50.0 °F 68% 30.09 in 6.2 mi NNW 3.5 mph - N/A   Scattered Clouds
12:50 AM 60.8 °F 50.0 °F 68% 30.09 in 6.2 mi North 4.6 mph - N/A   Scattered Clouds
1:00 AM 60 °F 50 °F 60% 30.10 in 19 mi North 3.5 mph - -  
1:20 AM 60.8 °F 50.0 °F 68% 30.09 in 6.2 mi North 3.5 mph - N/A   Scattered Clouds
1:50 AM 59.0 °F 50.0 °F 72% 30.09 in 6.2 mi Variable 2.3 mph - N/A   Scattered Clouds
2:20 AM 59.0 °F 50.0 °F 72% 30.09 in 6.2 mi NW 4.6 mph - N/A   Scattered Clouds
2:50 AM 59.0 °F 50.0 °F 72% 30.06 in 6.2 mi North 4.6 mph - N/A   Scattered Clouds
3:20 AM 57.2 °F 48.2 °F 72% 30.06 in 6.2 mi NNW 4.6 mph - N/A   Scattered Clouds
3:50 AM 59.0 °F 50.0 °F 72% 30.06 in 6.2 mi NNW 4.6 mph - N/A   Scattered Clouds
4:00 AM 58 °F 50 °F 68% 30.08 in 19 mi NNW 4.6 mph - -   Partly Cloudy
4:20 AM 57.2 °F 50.0 °F 77% 30.06 in 6.2 mi NW 4.6 mph - N/A   Scattered Clouds
4:50 AM 57.2 °F 50.0 °F 77% 30.06 in 6.2 mi NW 4.6 mph - N/A   Scattered Clouds
5:20 AM 59.0 °F 50.0 °F 72% 30.06 in 6.2 mi NNW 5.8 mph - N/A   Scattered Clouds
5:50 AM 59.0 °F 50.0 °F 72% 30.06 in 6.2 mi NW 3.5 mph - N/A   Scattered Clouds
6:20 AM 57.2 °F 50.0 °F 77% 30.06 in 6.2 mi NNW 3.5 mph - N/A   Mostly Cloudy
6:50 AM 59.0 °F 50.0 °F 72% 30.06 in 6.2 mi Variable 2.3 mph - N/A   Mostly Cloudy
7:00 AM 58 °F 51 °F 70% 30.09 in 19 mi NW 3.5 mph - -   Partly Cloudy
7:20 AM 59.0 °F 51.8 °F 77% 30.09 in 6.2 mi NNW 4.6 mph - N/A   Mostly Cloudy
7:50 AM 60.8 °F 50.0 °F 68% 30.09 in 6.2 mi NNW 3.5 mph - N/A   Scattered Clouds
8:20 AM 60.8 °F 51.8 °F 72% 30.09 in 6.2 mi NNW 4.6 mph - N/A   Scattered Clouds
8:50 AM 60.8 °F 51.8 °F 72% 30.09 in 6.2 mi North 4.6 mph - N/A   Partly Cloudy
9:20 AM 62.6 °F 51.8 °F 68% 30.09 in 6.2 mi NNE 6.9 mph - N/A   Partly Cloudy
9:50 AM 64.4 °F 51.8 °F 64% 30.09 in 6.2 mi NNE 5.8 mph - N/A   Partly Cloudy
10:00 AM 64 °F 51 °F 53% 30.10 in 19 mi NNE 4.6 mph - -   Partly Cloudy
10:20 AM 66.2 °F 51.8 °F 60% 30.09 in 6.2 mi North 3.5 mph - N/A   Partly Cloudy
10:50 AM 68.0 °F 50.0 °F 52% 30.09 in 6.2 mi Variable 2.3 mph - N/A   Partly Cloudy
11:20 AM 68.0 °F 50.0 °F 52% 30.06 in - North 4.6 mph - N/A   Clear
11:50 AM 69.8 °F 50.0 °F 49% 30.06 in - NE 3.5 mph - N/A   Clear
12:20 PM 69.8 °F 48.2 °F 46% 30.06 in - NNW 3.5 mph - N/A   Clear
12:50 PM 69.8 °F 48.2 °F 46% 30.06 in - Variable 2.3 mph - N/A   Clear
1:00 PM 70 °F 48 °F 34% 30.06 in 19 mi NNE 4.6 mph - -   Clear
1:20 PM 69.8 °F 50.0 °F 49% 30.06 in - NNE 3.5 mph - N/A   Clear
1:50 PM 71.6 °F 51.8 °F 50% 30.06 in - Variable 1.2 mph - N/A   Clear
2:20 PM 69.8 °F 51.8 °F 53% 30.06 in - South 4.6 mph - N/A   Clear
2:50 PM 69.8 °F 51.8 °F 53% 30.06 in - South 4.6 mph - N/A   Clear
3:20 PM 69.8 °F 51.8 °F 53% 30.06 in 6.2 mi South 4.6 mph - N/A   Partly Cloudy
3:50 PM 69.8 °F 53.6 °F 56% 30.06 in 6.2 mi South 3.5 mph - N/A   Scattered Clouds
4:00 PM 69 °F 53 °F 47% 30.06 in 12 mi South 3.5 mph - -   Partly Cloudy
4:20 PM 68.0 °F 53.6 °F 60% 30.06 in 6.2 mi SSW 3.5 mph - N/A   Scattered Clouds
4:50 PM 68.0 °F 53.6 °F 60% 30.06 in 6.2 mi SSE 3.5 mph - N/A   Partly Cloudy
5:20 PM 64.4 °F 53.6 °F 68% 30.06 in - Calm Calm - N/A   Clear
5:50 PM 64.4 °F 55.4 °F 73% 30.06 in - Variable 2.3 mph - N/A   Clear
6:20 PM 64.4 °F 51.8 °F 64% 30.06 in 6.2 mi NNW 4.6 mph - N/A   Partly Cloudy
6:50 PM 64.4 °F 53.6 °F 68% 30.06 in 6.2 mi North 5.8 mph - N/A   Partly Cloudy
7:00 PM 64 °F 54 °F 60% 30.08 in 12 mi NNW 5.8 mph - -   Scattered Clouds
7:20 PM 64.4 °F 53.6 °F 68% 30.06 in 5.0 mi NNW 5.8 mph - N/A   Unknown
7:50 PM 62.6 °F 53.6 °F 72% 30.06 in 5.0 mi NNW 4.6 mph - N/A   Unknown
8:20 PM 62.6 °F 53.6 °F 72% 30.09 in 5.0 mi North 3.5 mph - N/A   Unknown
8:50 PM 62.6 °F 51.8 °F 68% 30.09 in 5.0 mi NNE 3.5 mph - N/A   Unknown
9:20 PM 60.8 °F 51.8 °F 72% 30.09 in - Variable 2.3 mph - N/A   Clear
9:50 PM 60.8 °F 51.8 °F 72% 30.09 in - Variable 2.3 mph - N/A   Clear
10:00 PM 60 °F 52 °F 67% 30.10 in 12 mi NNW 3.5 mph - -  
10:20 PM 60.8 °F 51.8 °F 72% 30.09 in - North 4.6 mph - N/A   Clear
10:50 PM 59.0 °F 51.8 °F 77% 30.09 in - NNW 4.6 mph - N/A   Clear
11:20 PM 57.2 °F 50.0 °F 77% 30.09 in - Variable 2.3 mph - N/A   Clear
11:50 PM 59.0 °F 51.8 °F 77% 30.09 in - North 2.3 mph - N/A   Clear